TimeEST,TemperatureF,Dew PointF,Humidity,Sea Level PressureIn,VisibilityMPH,Wind Direction,Wind SpeedMPH,Gust SpeedMPH,PrecipitationIn,Events,Conditions,WindDirDegrees,DateUTC
12:47 AM,39.2,32.0,75,29.56,10.0,NW,11.5,-,N/A,,Overcast,320,2013-03-01 05:47:00
12:56 AM,39.0,32.0,76,29.57,10.0,NW,12.7,-,N/A,,Overcast,320,2013-03-01 05:56:00
2:56 AM,36.0,30.9,82,29.56,10.0,WNW,8.1,-,N/A,,Clear,300,2013-03-01 07:56:00
3:56 AM,36.0,32.0,86,29.58,10.0,WNW,9.2,-,N/A,,Mostly Cloudy,290,2013-03-01 08:56:00
4:56 AM,35.1,30.9,85,29.60,10.0,NW,9.2,-,N/A,,Overcast,310,2013-03-01 09:56:00
5:56 AM,35.1,30.0,82,29.61,10.0,NW,8.1,-,N/A,,Scattered Clouds,310,2013-03-01 10:56:00
7:56 AM,37.9,32.0,79,29.64,10.0,NW,10.4,-,N/A,,Scattered Clouds,320,2013-03-01 12:56:00
8:56 AM,42.1,32.0,67,29.65,10.0,NNW,11.5,-,N/A,,Mostly Cloudy,340,2013-03-01 13:56:00
10:56 AM,42.1,28.9,60,29.67,10.0,NNW,12.7,-,N/A,,Overcast,340,2013-03-01 15:56:00
11:56 AM,43.0,27.0,53,29.67,10.0,NNW,13.8,-,N/A,,Overcast,340,2013-03-01 16:56:00
12:56 PM,44.1,27.0,51,29.65,10.0,NW,11.5,-,N/A,,Overcast,310,2013-03-01 17:56:00
1:56 PM,45.0,27.0,49,29.65,10.0,North,11.5,-,N/A,,Overcast,350,2013-03-01 18:56:00
2:56 PM,45.0,27.0,49,29.65,10.0,NNW,11.5,-,N/A,,Overcast,340,2013-03-01 19:56:00
3:56 PM,45.0,26.1,48,29.65,10.0,WNW,9.2,-,N/A,,Overcast,300,2013-03-01 20:56:00
4:56 PM,43.0,25.0,49,29.66,10.0,NNW,12.7,-,N/A,,Overcast,330,2013-03-01 21:56:00
5:56 PM,42.1,26.1,53,29.69,10.0,NW,6.9,-,N/A,,Overcast,310,2013-03-01 22:56:00
6:56 PM,41.0,26.1,55,29.70,10.0,NW,12.7,-,N/A,,Overcast,320,2013-03-01 23:56:00
7:56 PM,39.9,27.0,60,29.72,10.0,NNW,11.5,-,N/A,,Overcast,340,2013-03-02 00:56:00
8:56 PM,39.0,28.0,65,29.73,10.0,NNW,9.2,-,N/A,,Overcast,340,2013-03-02 01:56:00
9:56 PM,39.0,27.0,62,29.73,10.0,NNW,9.2,-,N/A,,Overcast,340,2013-03-02 02:56:00
10:56 PM,39.0,27.0,62,29.74,10.0,NW,11.5,16.1,N/A,,Overcast,320,2013-03-02 03:56:00
11:56 PM,37.9,27.0,65,29.73,10.0,NW,15.0,-,N/A,,Overcast,320,2013-03-02 04:56:00